Torna al catalogo

BREEZE-M DEB

LostHEO
NORAD 34233·DEBRIS·🇷🇺 Russia

Lanciato Feb 28, 2006 da Baikonur Cosmodrome

Loading…

Prossimi Passaggi (prossime 24 ore)

TLE

ObsoletoSource: Space-Track

Epoca: Dec 17, 2021, 18:06 UTC

1 34233U 06006AY  21351.75485792  .00005154  00000-0  78787-2 0  9990
2 34233  52.1868 150.8964 4845568 202.4470 126.1099  5.62680443270239

Traccia BREEZE-M DEB in tempo reale con AllMySat

Download on the App Store